Time,TemperatureF,DewpointF,PressureIn,WindDirection,WindDirectionDegrees,WindSpeedMPH,WindSpeedGustMPH,Humidity,HourlyPrecipIn,Conditions,Clouds,dailyrainin,SolarRadiationWatts/m^2,SoftwareType,DateUTC
2013-07-25 00:01:00,70.8,59.3,29.94,North,360,7.0,9.0,67,0.00,,,0.00,0,Wunderground v.1.15,2013-07-25 04:01:00,
2013-07-25 00:03:00,70.7,59.2,29.94,NNW,327,7.0,14.0,67,0.00,,,0.00,0,Wunderground v.1.15,2013-07-25 04:03:00,
2013-07-25 00:04:00,70.7,59.2,29.94,NNE,32,7.0,14.0,67,0.00,,,0.00,0,Wunderground v.1.15,2013-07-25 04:04:00,
2013-07-25 00:08:00,70.6,59.1,29.94,NNW,344,7.0,14.0,67,0.00,,,0.00,0,Wunderground v.1.15,2013-07-25 04:08:00,
2013-07-25 00:10:00,70.5,59.0,29.94,North,350,7.0,7.0,67,0.00,,,0.00,0,Wunderground v.1.15,2013-07-25 04:10:00,
2013-07-25 00:17:00,70.3,59.2,29.94,NNW,340,7.0,10.0,68,0.00,,,0.00,0,Wunderground v.1.15,2013-07-25 04:17:00,
2013-07-25 00:22:00,70.1,59.0,29.94,NNE,15,8.0,9.0,68,0.00,,,0.00,0,Wunderground v.1.15,2013-07-25 04:22:00,
2013-07-25 00:27:00,69.9,58.4,29.94,NNE,25,9.0,13.0,67,0.00,,,0.00,0,Wunderground v.1.15,2013-07-25 04:27:00,
2013-07-25 00:33:00,69.7,57.8,29.94,NNE,25,9.0,10.0,66,0.00,,,0.00,0,Wunderground v.1.15,2013-07-25 04:33:00,
2013-07-25 00:38:00,69.6,58.2,29.94,NNW,328,7.0,10.0,67,0.00,,,0.00,0,Wunderground v.1.15,2013-07-25 04:38:00,
2013-07-25 00:44:00,69.4,58.0,29.94,North,350,7.0,8.0,67,0.00,,,0.00,0,Wunderground v.1.15,2013-07-25 04:44:00,
2013-07-25 00:50:00,69.1,58.1,29.95,NNE,31,7.0,9.0,68,0.00,,,0.00,0,Wunderground v.1.15,2013-07-25 04:50:00,
2013-07-25 00:56:00,68.9,57.9,29.95,NNE,19,6.0,9.0,68,0.00,,,0.00,0,Wunderground v.1.15,2013-07-25 04:56:00,
2013-07-25 01:01:00,68.7,57.7,29.95,NNW,348,5.0,5.0,68,0.00,,,0.00,0,Wunderground v.1.15,2013-07-25 05:01:00,
2013-07-25 01:07:00,68.2,56.8,29.96,NNW,336,6.0,10.0,67,0.00,,,0.00,0,Wunderground v.1.15,2013-07-25 05:07:00,
2013-07-25 01:13:00,67.7,56.3,29.96,NNW,341,8.0,12.0,67,0.00,,,0.00,0,Wunderground v.1.15,2013-07-25 05:13:00,
2013-07-25 01:19:00,67.5,56.2,29.96,North,11,6.0,12.0,67,0.00,,,0.00,0,Wunderground v.1.15,2013-07-25 05:19:00,
2013-07-25 01:24:00,67.2,55.9,29.96,NNE,30,6.0,10.0,67,0.00,,,0.00,0,Wunderground v.1.15,2013-07-25 05:24:00,
2013-07-25 01:30:00,66.9,55.6,29.96,North,5,6.0,12.0,67,0.00,,,0.00,0,Wunderground v.1.15,2013-07-25 05:30:00,
2013-07-25 01:35:00,66.5,54.8,29.96,North,360,6.0,12.0,66,0.00,,,0.00,0,Wunderground v.1.15,2013-07-25 05:35:00,
2013-07-25 01:41:00,66.2,54.5,29.97,North,355,6.0,7.0,66,0.00,,,0.00,0,Wunderground v.1.15,2013-07-25 05:41:00,
2013-07-25 01:47:00,65.8,54.1,29.96,NW,317,7.0,10.0,66,0.00,,,0.00,0,Wunderground v.1.15,2013-07-25 05:47:00,
2013-07-25 01:53:00,65.6,54.3,29.96,NNE,31,6.0,9.0,67,0.00,,,0.00,0,Wunderground v.1.15,2013-07-25 05:53:00,
2013-07-25 01:58:00,65.4,53.7,29.96,NE,43,5.0,11.0,66,0.00,,,0.00,0,Wunderground v.1.15,2013-07-25 05:58:00,
2013-07-25 02:03:00,65.1,53.5,29.96,NE,42,7.0,12.0,66,0.00,,,0.00,0,Wunderground v.1.15,2013-07-25 06:03:00,
2013-07-25 02:08:00,64.8,53.6,29.96,NNW,337,9.0,12.0,67,0.00,,,0.00,0,Wunderground v.1.15,2013-07-25 06:08:00,
2013-07-25 02:14:00,64.7,53.5,29.96,North,360,7.0,12.0,67,0.00,,,0.00,0,Wunderground v.1.15,2013-07-25 06:14:00,
2013-07-25 02:20:00,64.5,53.3,29.96,North,360,7.0,11.0,67,0.00,,,0.00,0,Wunderground v.1.15,2013-07-25 06:20:00,
2013-07-25 02:26:00,64.3,53.5,29.96,NNE,22,7.0,16.0,68,0.00,,,0.00,0,Wunderground v.1.15,2013-07-25 06:26:00,
2013-07-25 02:31:00,64.1,53.7,29.97,North,355,8.0,12.0,69,0.00,,,0.00,0,Wunderground v.1.15,2013-07-25 06:31:00,
2013-07-25 02:37:00,63.9,53.5,29.97,NNE,32,7.0,15.0,69,0.00,,,0.00,0,Wunderground v.1.15,2013-07-25 06:37:00,
2013-07-25 02:43:00,63.8,53.4,29.97,NW,309,6.0,13.0,69,0.00,,,0.00,0,Wunderground v.1.15,2013-07-25 06:43:00,
2013-07-25 02:48:00,63.6,53.6,29.97,NNW,342,7.0,13.0,70,0.00,,,0.00,0,Wunderground v.1.15,2013-07-25 06:48:00,
2013-07-25 02:54:00,63.5,53.5,29.97,NNW,344,6.0,11.0,70,0.00,,,0.00,0,Wunderground v.1.15,2013-07-25 06:54:00,
2013-07-25 03:00:00,63.4,53.4,29.97,North,351,7.0,7.0,70,0.00,,,0.00,0,Wunderground v.1.15,2013-07-25 07:00:00,
2013-07-25 03:05:00,63.3,53.3,29.97,NNE,20,6.0,7.0,70,0.00,,,0.00,0,Wunderground v.1.15,2013-07-25 07:05:00,
2013-07-25 03:11:00,63.3,53.3,29.97,NNE,30,6.0,6.0,70,0.00,,,0.00,0,Wunderground v.1.15,2013-07-25 07:11:00,
2013-07-25 03:17:00,63.2,53.3,29.97,NW,326,6.0,15.0,70,0.00,,,0.00,0,Wunderground v.1.15,2013-07-25 07:17:00,
2013-07-25 03:22:00,63.0,53.1,29.97,North,11,7.0,12.0,70,0.00,,,0.00,0,Wunderground v.1.15,2013-07-25 07:22:00,
2013-07-25 03:27:00,62.9,53.0,29.97,NNE,15,7.0,12.0,70,0.00,,,0.00,0,Wunderground v.1.15,2013-07-25 07:27:00,
2013-07-25 03:33:00,62.7,52.8,29.98,NNE,30,8.0,14.0,70,0.00,,,0.00,0,Wunderground v.1.15,2013-07-25 07:33:00,
2013-07-25 03:38:00,62.6,52.7,29.98,NNE,32,8.0,14.0,70,0.00,,,0.00,0,Wunderground v.1.15,2013-07-25 07:38:00,
2013-07-25 03:43:00,62.7,52.8,29.98,NNE,20,7.0,11.0,70,0.00,,,0.00,0,Wunderground v.1.15,2013-07-25 07:43:00,
2013-07-25 03:49:00,62.6,52.7,29.99,NE,38,7.0,11.0,70,0.00,,,0.00,0,Wunderground v.1.15,2013-07-25 07:49:00,
2013-07-25 03:54:00,62.6,52.7,29.98,North,360,7.0,11.0,70,0.00,,,0.00,0,Wunderground v.1.15,2013-07-25 07:54:00,
2013-07-25 04:00:00,62.4,52.5,29.98,North,360,7.0,8.0,70,0.00,,,0.00,0,Wunderground v.1.15,2013-07-25 08:00:00,
2013-07-25 04:05:00,62.2,52.3,29.98,North,11,8.0,12.0,70,0.00,,,0.00,0,Wunderground v.1.15,2013-07-25 08:05:00,
2013-07-25 04:11:00,62.1,52.2,29.98,NW,308,7.0,7.0,70,0.00,,,0.00,0,Wunderground v.1.15,2013-07-25 08:11:00,
2013-07-25 04:16:00,62.1,51.8,29.99,North,360,6.0,12.0,69,0.00,,,0.00,0,Wunderground v.1.15,2013-07-25 08:16:00,
2013-07-25 04:22:00,62.0,51.7,29.99,NE,53,6.0,6.0,69,0.00,,,0.00,0,Wunderground v.1.15,2013-07-25 08:22:00,
2013-07-25 04:27:00,62.0,51.7,29.99,North,360,5.0,8.0,69,0.00,,,0.00,0,Wunderground v.1.15,2013-07-25 08:27:00,
2013-07-25 04:32:00,61.9,51.6,29.99,North,355,5.0,7.0,69,0.00,,,0.00,0,Wunderground v.1.15,2013-07-25 08:32:00,
2013-07-25 04:37:00,61.8,51.1,29.99,NE,42,6.0,10.0,68,0.00,,,0.00,0,Wunderground v.1.15,2013-07-25 08:37:00,
2013-07-25 04:42:00,61.6,50.9,29.98,NNW,338,6.0,7.0,68,0.00,,,0.00,0,Wunderground v.1.15,2013-07-25 08:42:00,
2013-07-25 04:48:00,61.5,51.2,29.99,North,5,7.0,11.0,69,0.00,,,0.00,0,Wunderground v.1.15,2013-07-25 08:48:00,
2013-07-25 04:54:00,61.3,51.0,29.99,NNE,20,8.0,11.0,69,0.00,,,0.00,0,Wunderground v.1.15,2013-07-25 08:54:00,
2013-07-25 04:59:00,61.3,51.0,30.00,NE,41,7.0,11.0,69,0.00,,,0.00,0,Wunderground v.1.15,2013-07-25 08:59:00,
2013-07-25 05:05:00,61.3,51.0,30.00,North,5,5.0,10.0,69,0.00,,,0.00,0,Wunderground v.1.15,2013-07-25 09:05:00,
2013-07-25 05:12:00,61.3,51.0,30.00,NNE,15,5.0,5.0,69,0.00,,,0.00,0,Wunderground v.1.15,2013-07-25 09:12:00,
2013-07-25 05:17:00,61.1,50.8,30.00,NNE,17,5.0,9.0,69,0.00,,,0.00,0,Wunderground v.1.15,2013-07-25 09:17:00,
2013-07-25 05:22:00,61.0,50.8,30.00,NW,320,5.0,5.0,69,0.00,,,0.00,0,Wunderground v.1.15,2013-07-25 09:22:00,
2013-07-25 05:27:00,61.0,50.8,30.00,NNW,327,6.0,9.0,69,0.00,,,0.00,0,Wunderground v.1.15,2013-07-25 09:27:00,
2013-07-25 05:33:00,60.8,50.6,30.00,North,11,7.0,12.0,69,0.00,,,0.00,0,Wunderground v.1.15,2013-07-25 09:33:00,
2013-07-25 05:39:00,60.6,50.4,30.00,NE,48,8.0,12.0,69,0.00,,,0.00,0,Wunderground v.1.15,2013-07-25 09:39:00,
2013-07-25 05:44:00,60.6,50.8,30.01,NE,44,7.0,12.0,70,0.00,,,0.00,5,Wunderground v.1.15,2013-07-25 09:44:00,
2013-07-25 05:50:00,60.5,50.7,30.01,North,360,6.0,6.0,70,0.00,,,0.00,9,Wunderground v.1.15,2013-07-25 09:50:00,
2013-07-25 05:56:00,60.3,50.5,30.01,NE,36,6.0,11.0,70,0.00,,,0.00,19,Wunderground v.1.15,2013-07-25 09:56:00,
2013-07-25 06:02:00,60.3,50.5,30.01,NNE,21,6.0,9.0,70,0.00,,,0.00,40,Wunderground v.1.15,2013-07-25 10:02:00,
2013-07-25 06:07:00,60.3,50.9,30.01,NNE,31,7.0,13.0,71,0.00,,,0.00,49,Wunderground v.1.15,2013-07-25 10:07:00,
2013-07-25 06:17:00,60.4,51.0,30.01,NNE,31,7.0,9.0,71,0.00,,,0.00,53,Wunderground v.1.15,2013-07-25 10:17:00,
2013-07-25 06:22:00,60.5,51.0,30.01,NW,326,5.0,6.0,71,0.00,,,0.00,46,Wunderground v.1.15,2013-07-25 10:22:00,
2013-07-25 06:28:00,60.4,51.0,30.01,NNE,23,6.0,11.0,71,0.00,,,0.00,33,Wunderground v.1.15,2013-07-25 10:28:00,
2013-07-25 06:33:00,60.4,51.0,30.02,NNW,338,5.0,9.0,71,0.00,,,0.00,25,Wunderground v.1.15,2013-07-25 10:33:00,
2013-07-25 06:39:00,60.4,51.3,30.02,NNE,32,6.0,9.0,72,0.00,,,0.00,18,Wunderground v.1.15,2013-07-25 10:39:00,
2013-07-25 06:44:00,60.3,50.9,30.02,NW,319,5.0,8.0,71,0.00,,,0.00,21,Wunderground v.1.15,2013-07-25 10:44:00,
2013-07-25 06:50:00,60.3,51.2,30.02,North,5,5.0,5.0,72,0.00,,,0.00,28,Wunderground v.1.15,2013-07-25 10:50:00,
2013-07-25 06:56:00,60.2,51.1,30.02,North,5,6.0,11.0,72,0.00,,,0.00,56,Wunderground v.1.15,2013-07-25 10:56:00,
2013-07-25 07:01:00,60.3,51.2,30.02,NNW,340,7.0,10.0,72,0.00,,,0.00,67,Wunderground v.1.15,2013-07-25 11:01:00,
2013-07-25 07:07:00,60.4,51.3,30.03,NNE,17,7.0,10.0,72,0.00,,,0.00,125,Wunderground v.1.15,2013-07-25 11:07:00,
2013-07-25 07:12:00,60.5,51.4,30.03,NNE,30,6.0,7.0,72,0.00,,,0.00,83,Wunderground v.1.15,2013-07-25 11:12:00,
2013-07-25 07:18:00,60.7,51.6,30.03,NNE,25,6.0,9.0,72,0.00,,,0.00,72,Wunderground v.1.15,2013-07-25 11:18:00,
2013-07-25 07:24:00,60.7,51.6,30.03,NE,46,6.0,8.0,72,0.00,,,0.00,67,Wunderground v.1.15,2013-07-25 11:24:00,
2013-07-25 07:30:00,60.5,51.8,30.03,North,9,6.0,8.0,73,0.00,,,0.00,54,Wunderground v.1.15,2013-07-25 11:30:00,
2013-07-25 07:35:00,60.5,51.8,30.03,NE,34,6.0,9.0,73,0.00,,,0.00,74,Wunderground v.1.15,2013-07-25 11:35:00,
2013-07-25 07:41:00,60.7,52.0,30.04,NNE,32,5.0,5.0,73,0.00,,,0.00,53,Wunderground v.1.15,2013-07-25 11:41:00,
2013-07-25 07:46:00,60.8,52.1,30.04,North,5,4.0,6.0,73,0.00,,,0.00,40,Wunderground v.1.15,2013-07-25 11:46:00,
2013-07-25 07:52:00,60.9,52.6,30.04,NNE,18,4.0,6.0,74,0.00,,,0.00,46,Wunderground v.1.15,2013-07-25 11:52:00,
2013-07-25 07:57:00,60.8,52.5,30.04,NNW,348,5.0,8.0,74,0.00,,,0.00,67,Wunderground v.1.15,2013-07-25 11:57:00,
2013-07-25 08:02:00,61.0,53.0,30.04,North,360,6.0,7.0,75,0.00,,,0.00,79,Wunderground v.1.15,2013-07-25 12:02:00,
2013-07-25 08:07:00,61.2,53.2,30.04,NNE,17,6.0,11.0,75,0.00,,,0.00,109,Wunderground v.1.15,2013-07-25 12:07:00,
2013-07-25 08:12:00,61.4,53.4,30.04,North,355,8.0,8.0,75,0.00,,,0.00,146,Wunderground v.1.15,2013-07-25 12:12:00,
2013-07-25 08:18:00,61.6,53.6,30.05,NE,35,9.0,11.0,75,0.00,,,0.00,98,Wunderground v.1.15,2013-07-25 12:18:00,
2013-07-25 08:23:00,61.6,53.6,30.05,NE,55,9.0,11.0,75,0.00,,,0.00,109,Wunderground v.1.15,2013-07-25 12:23:00,
2013-07-25 08:29:00,61.6,54.0,30.05,North,360,9.0,14.0,76,0.00,,,0.00,123,Wunderground v.1.15,2013-07-25 12:29:00,
2013-07-25 08:35:00,61.6,54.0,30.05,NNE,18,9.0,10.0,76,0.00,,,0.00,105,Wunderground v.1.15,2013-07-25 12:35:00,
2013-07-25 08:41:00,61.6,54.0,30.06,NE,51,9.0,12.0,76,0.00,,,0.00,90,Wunderground v.1.15,2013-07-25 12:41:00,
2013-07-25 08:47:00,61.6,54.0,30.06,NNE,31,9.0,14.0,76,0.00,,,0.00,132,Wunderground v.1.15,2013-07-25 12:47:00,
2013-07-25 08:52:00,61.6,54.3,30.06,NNE,20,9.0,11.0,77,0.00,,,0.00,123,Wunderground v.1.15,2013-07-25 12:52:00,
2013-07-25 08:58:00,61.6,54.3,30.05,NE,49,9.0,13.0,77,0.00,,,0.00,98,Wunderground v.1.15,2013-07-25 12:58:00,
2013-07-25 09:03:00,61.6,54.3,30.05,NNE,30,8.0,10.0,77,0.00,,,0.00,104,Wunderground v.1.15,2013-07-25 13:03:00,
2013-07-25 09:09:00,61.5,54.6,30.05,NNE,14,8.0,14.0,78,0.00,,,0.00,151,Wunderground v.1.15,2013-07-25 13:09:00,
2013-07-25 09:15:00,61.7,54.8,30.05,NE,44,9.0,16.0,78,0.00,,,0.00,141,Wunderground v.1.15,2013-07-25 13:15:00,
2013-07-25 09:20:00,61.8,54.9,30.05,NE,35,8.0,8.0,78,0.00,,,0.00,188,Wunderground v.1.15,2013-07-25 13:20:00,
2013-07-25 09:27:00,62.0,55.1,30.05,NNE,20,7.0,13.0,78,0.00,,,0.00,206,Wunderground v.1.15,2013-07-25 13:27:00,
2013-07-25 09:33:00,61.8,54.9,30.06,NNE,15,9.0,14.0,78,0.00,,,0.00,185,Wunderground v.1.15,2013-07-25 13:33:00,
2013-07-25 09:39:00,61.7,55.1,30.07,North,5,11.0,16.0,79,0.00,,,0.00,128,Wunderground v.1.15,2013-07-25 13:39:00,
2013-07-25 09:44:00,61.7,55.1,30.07,ENE,62,9.0,15.0,79,0.00,,,0.00,116,Wunderground v.1.15,2013-07-25 13:44:00,
2013-07-25 09:50:00,61.5,54.9,30.07,NE,42,8.0,8.0,79,0.00,,,0.00,113,Wunderground v.1.15,2013-07-25 13:50:00,
2013-07-25 09:56:00,61.4,55.2,30.07,NNE,16,9.0,11.0,80,0.00,,,0.00,155,Wunderground v.1.15,2013-07-25 13:56:00,
2013-07-25 10:01:00,61.4,55.2,30.07,NNE,30,10.0,13.0,80,0.00,,,0.00,193,Wunderground v.1.15,2013-07-25 14:01:00,
2013-07-25 10:06:00,61.5,55.6,30.06,NNE,18,11.0,16.0,81,0.00,,,0.00,243,Wunderground v.1.15,2013-07-25 14:06:00,
2013-07-25 10:12:00,61.8,55.6,30.06,NE,46,11.0,14.0,80,0.00,,,0.00,276,Wunderground v.1.15,2013-07-25 14:12:00,
2013-07-25 10:18:00,62.1,55.9,30.07,NE,38,10.0,17.0,80,0.00,,,0.00,239,Wunderground v.1.15,2013-07-25 14:18:00,
2013-07-25 10:24:00,62.3,56.0,30.06,NE,52,8.0,10.0,80,0.00,,,0.00,243,Wunderground v.1.15,2013-07-25 14:24:00,
2013-07-25 10:29:00,62.3,56.0,30.06,NNW,333,8.0,12.0,80,0.00,,,0.00,178,Wunderground v.1.15,2013-07-25 14:29:00,
2013-07-25 10:35:00,62.1,55.9,30.07,NE,34,9.0,13.0,80,0.00,,,0.00,153,Wunderground v.1.15,2013-07-25 14:35:00,
2013-07-25 10:42:00,62.0,56.1,30.07,NE,44,10.0,13.0,81,0.00,,,0.00,158,Wunderground v.1.15,2013-07-25 14:42:00,
2013-07-25 10:48:00,62.1,56.2,30.07,NE,38,10.0,14.0,81,0.00,,,0.00,128,Wunderground v.1.15,2013-07-25 14:48:00,
2013-07-25 10:53:00,62.0,56.1,30.07,NE,49,9.0,12.0,81,0.00,,,0.00,142,Wunderground v.1.15,2013-07-25 14:53:00,
2013-07-25 10:59:00,62.2,56.3,30.07,NNE,28,9.0,12.0,81,0.00,,,0.00,134,Wunderground v.1.15,2013-07-25 14:59:00,
2013-07-25 11:04:00,62.2,56.3,30.07,NE,44,8.0,14.0,81,0.00,,,0.00,141,Wunderground v.1.15,2013-07-25 15:04:00,
2013-07-25 11:10:00,62.4,56.5,30.07,NE,54,8.0,8.0,81,0.00,,,0.00,165,Wunderground v.1.15,2013-07-25 15:10:00,
2013-07-25 11:17:00,62.5,56.6,30.07,North,350,8.0,13.0,81,0.00,,,0.00,127,Wunderground v.1.15,2013-07-25 15:17:00,
2013-07-25 11:23:00,62.5,56.6,30.07,NNE,32,8.0,13.0,81,0.00,,,0.00,181,Wunderground v.1.15,2013-07-25 15:23:00,
2013-07-25 11:28:00,62.7,56.8,30.07,NNE,18,8.0,13.0,81,0.00,,,0.00,206,Wunderground v.1.15,2013-07-25 15:28:00,
2013-07-25 11:34:00,62.8,56.9,30.08,North,355,7.0,10.0,81,0.00,,,0.00,156,Wunderground v.1.15,2013-07-25 15:34:00,
2013-07-25 11:39:00,62.8,56.5,30.08,NE,47,7.0,14.0,80,0.00,,,0.00,176,Wunderground v.1.15,2013-07-25 15:39:00,
2013-07-25 11:44:00,62.9,57.0,30.08,NNE,13,7.0,10.0,81,0.00,,,0.00,186,Wunderground v.1.15,2013-07-25 15:44:00,
2013-07-25 11:49:00,63.0,57.1,30.08,North,5,7.0,12.0,81,0.00,,,0.00,202,Wunderground v.1.15,2013-07-25 15:49:00,
2013-07-25 11:54:00,63.0,56.7,30.07,NE,56,8.0,11.0,80,0.00,,,0.00,244,Wunderground v.1.15,2013-07-25 15:54:00,
2013-07-25 11:59:00,63.2,56.9,30.07,NNE,17,7.0,11.0,80,0.00,,,0.00,181,Wunderground v.1.15,2013-07-25 15:59:00,
2013-07-25 12:06:00,63.0,56.7,30.07,NE,40,8.0,9.0,80,0.00,,,0.00,179,Wunderground v.1.15,2013-07-25 16:06:00,
2013-07-25 12:11:00,62.8,56.5,30.07,NE,40,10.0,10.0,80,0.00,,,0.00,186,Wunderground v.1.15,2013-07-25 16:11:00,
2013-07-25 12:17:00,62.9,57.0,30.07,ENE,62,10.0,14.0,81,0.00,,,0.00,165,Wunderground v.1.15,2013-07-25 16:17:00,
2013-07-25 12:22:00,62.9,56.6,30.07,NNE,17,10.0,12.0,80,0.00,,,0.00,179,Wunderground v.1.15,2013-07-25 16:22:00,
2013-07-25 12:28:00,63.1,57.2,30.07,NE,41,10.0,12.0,81,0.00,,,0.00,190,Wunderground v.1.15,2013-07-25 16:28:00,
2013-07-25 12:33:00,63.2,57.3,30.07,North,349,8.0,12.0,81,0.00,,,0.00,193,Wunderground v.1.15,2013-07-25 16:33:00,
2013-07-25 12:39:00,63.1,57.2,30.07,NE,36,9.0,19.0,81,0.00,,,0.00,211,Wunderground v.1.15,2013-07-25 16:39:00,
2013-07-25 12:44:00,63.0,57.1,30.07,NE,36,10.0,13.0,81,0.00,,,0.00,206,Wunderground v.1.15,2013-07-25 16:44:00,
2013-07-25 12:49:00,63.1,57.2,30.07,NNE,13,10.0,13.0,81,0.00,,,0.00,220,Wunderground v.1.15,2013-07-25 16:49:00,
2013-07-25 12:56:00,63.3,57.0,30.07,NNW,346,8.0,13.0,80,0.00,,,0.00,251,Wunderground v.1.15,2013-07-25 16:56:00,
2013-07-25 13:02:00,63.1,57.2,30.08,NE,34,10.0,16.0,81,0.00,,,0.00,186,Wunderground v.1.15,2013-07-25 17:02:00,
2013-07-25 13:07:00,62.9,57.3,30.08,North,360,10.0,16.0,82,0.00,,,0.00,204,Wunderground v.1.15,2013-07-25 17:07:00,
2013-07-25 13:12:00,63.0,57.4,30.08,NE,55,8.0,12.0,82,0.00,,,0.00,190,Wunderground v.1.15,2013-07-25 17:12:00,
2013-07-25 13:18:00,62.6,57.4,30.08,NE,39,9.0,14.0,83,0.00,,,0.00,153,Wunderground v.1.15,2013-07-25 17:18:00,
2013-07-25 13:24:00,62.4,57.5,30.08,NE,46,9.0,17.0,84,0.00,,,0.00,171,Wunderground v.1.15,2013-07-25 17:24:00,
2013-07-25 13:29:00,62.2,57.3,30.08,NNE,18,9.0,17.0,84,0.00,,,0.00,186,Wunderground v.1.15,2013-07-25 17:29:00,
2013-07-25 13:34:00,62.1,57.2,30.07,NE,41,11.0,11.0,84,0.00,,,0.00,171,Wunderground v.1.15,2013-07-25 17:34:00,
2013-07-25 13:40:00,62.0,57.1,30.07,NNE,25,10.0,10.0,84,0.00,,,0.00,211,Wunderground v.1.15,2013-07-25 17:40:00,
2013-07-25 13:46:00,62.2,57.6,30.08,NNE,13,9.0,11.0,85,0.00,,,0.00,156,Wunderground v.1.15,2013-07-25 17:46:00,
2013-07-25 13:52:00,61.9,57.3,30.08,ENE,57,9.0,15.0,85,0.00,,,0.00,127,Wunderground v.1.15,2013-07-25 17:52:00,
2013-07-25 13:57:00,61.8,57.2,30.07,NE,36,10.0,17.0,85,0.00,,,0.00,102,Wunderground v.1.15,2013-07-25 17:57:00,
2013-07-25 14:03:00,61.6,57.4,30.08,NE,56,10.0,13.0,86,0.00,,,0.00,84,Wunderground v.1.15,2013-07-25 18:03:00,
2013-07-25 14:08:00,61.7,57.5,30.08,ENE,57,7.0,13.0,86,0.00,,,0.00,79,Wunderground v.1.15,2013-07-25 18:08:00,
2013-07-25 14:13:00,61.6,57.4,30.08,NNE,15,8.0,10.0,86,0.00,,,0.00,46,Wunderground v.1.15,2013-07-25 18:13:00,
2013-07-25 14:19:00,61.4,57.2,30.08,NNE,15,9.0,14.0,86,0.00,,,0.00,35,Wunderground v.1.15,2013-07-25 18:19:00,
2013-07-25 14:25:00,61.4,57.2,30.08,NE,38,8.0,9.0,86,0.00,,,0.00,39,Wunderground v.1.15,2013-07-25 18:25:00,
2013-07-25 14:30:00,61.4,57.2,30.08,NE,52,7.0,13.0,86,0.00,,,0.00,40,Wunderground v.1.15,2013-07-25 18:30:00,
2013-07-25 14:35:00,60.9,57.0,30.08,NE,51,9.0,13.0,87,0.00,,,0.01,40,Wunderground v.1.15,2013-07-25 18:35:00,
2013-07-25 14:40:00,60.6,57.3,30.08,NNE,15,8.0,8.0,89,0.24,,,0.03,47,Wunderground v.1.15,2013-07-25 18:40:00,
2013-07-25 14:46:00,60.2,57.3,30.08,NE,35,7.0,12.0,90,0.17,,,0.04,51,Wunderground v.1.15,2013-07-25 18:46:00,
2013-07-25 14:52:00,60.0,57.4,30.08,NNE,22,8.0,10.0,91,0.14,,,0.05,74,Wunderground v.1.15,2013-07-25 18:52:00,
2013-07-25 14:58:00,59.9,57.6,30.07,NNE,23,8.0,12.0,92,0.11,,,0.07,100,Wunderground v.1.15,2013-07-25 18:58:00,
2013-07-25 15:04:00,59.8,57.5,30.08,NNE,17,8.0,10.0,92,0.13,,,0.08,93,Wunderground v.1.15,2013-07-25 19:04:00,
2013-07-25 15:10:00,59.8,57.8,30.08,NE,37,7.0,9.0,93,0.14,,,0.09,65,Wunderground v.1.15,2013-07-25 19:10:00,
2013-07-25 15:16:00,59.8,57.8,30.08,NE,46,7.0,10.0,93,0.14,,,0.11,74,Wunderground v.1.15,2013-07-25 19:16:00,
2013-07-25 15:22:00,59.6,57.6,30.08,NE,42,7.0,9.0,93,0.10,,,0.12,90,Wunderground v.1.15,2013-07-25 19:22:00,
2013-07-25 15:28:00,59.7,57.7,30.08,NNE,31,7.0,10.0,93,0.10,,,0.13,111,Wunderground v.1.15,2013-07-25 19:28:00,
2013-07-25 15:33:00,59.7,58.0,30.08,NNE,22,6.0,8.0,94,0.10,,,0.13,86,Wunderground v.1.15,2013-07-25 19:33:00,
2013-07-25 15:38:00,59.7,58.0,30.07,NE,48,6.0,8.0,94,0.06,,,0.14,76,Wunderground v.1.15,2013-07-25 19:38:00,
2013-07-25 15:44:00,59.6,57.9,30.07,NNE,26,6.0,11.0,94,0.10,,,0.14,62,Wunderground v.1.15,2013-07-25 19:44:00,
2013-07-25 15:49:00,59.4,57.7,30.07,NNE,17,7.0,13.0,94,0.10,,,0.15,81,Wunderground v.1.15,2013-07-25 19:49:00,
2013-07-25 15:55:00,59.4,57.7,30.07,NNW,348,7.0,11.0,94,0.08,,,0.16,83,Wunderground v.1.15,2013-07-25 19:55:00,
2013-07-25 16:00:00,59.4,57.7,30.07,NNE,25,8.0,12.0,94,0.35,,,0.19,79,Wunderground v.1.15,2013-07-25 20:00:00,
2013-07-25 16:06:00,59.1,57.4,30.07,NNE,13,9.0,12.0,94,0.25,,,0.21,79,Wunderground v.1.15,2013-07-25 20:06:00,
2013-07-25 16:12:00,59.1,57.4,30.07,North,10,8.0,10.0,94,0.14,,,0.22,65,Wunderground v.1.15,2013-07-25 20:12:00,
2013-07-25 16:18:00,59.0,57.3,30.07,ENE,69,8.0,13.0,94,0.10,,,0.23,46,Wunderground v.1.15,2013-07-25 20:18:00,
2013-07-25 16:24:00,59.0,57.3,30.07,NNE,30,7.0,9.0,94,0.09,,,0.24,37,Wunderground v.1.15,2013-07-25 20:24:00,
2013-07-25 16:29:00,59.0,57.6,30.07,NNE,30,8.0,11.0,95,0.09,,,0.25,33,Wunderground v.1.15,2013-07-25 20:29:00,
2013-07-25 16:34:00,59.0,57.6,30.07,NNE,24,7.0,12.0,95,0.56,,,0.30,37,Wunderground v.1.15,2013-07-25 20:34:00,
2013-07-25 16:39:00,58.9,57.5,30.07,NNE,33,7.0,14.0,95,0.34,,,0.33,40,Wunderground v.1.15,2013-07-25 20:39:00,
2013-07-25 16:44:00,58.8,57.4,30.08,North,360,8.0,9.0,95,0.20,,,0.35,35,Wunderground v.1.15,2013-07-25 20:44:00,
2013-07-25 16:49:00,58.8,57.4,30.08,NNE,13,7.0,10.0,95,0.14,,,0.36,40,Wunderground v.1.15,2013-07-25 20:49:00,
2013-07-25 16:55:00,58.8,57.4,30.08,NNE,14,7.0,12.0,95,0.12,,,0.37,40,Wunderground v.1.15,2013-07-25 20:55:00,
2013-07-25 17:00:00,58.7,57.3,30.07,NNE,18,9.0,10.0,95,0.10,,,0.38,56,Wunderground v.1.15,2013-07-25 21:00:00,
2013-07-25 17:05:00,58.7,57.3,30.08,NNE,30,9.0,10.0,95,0.12,,,0.39,58,Wunderground v.1.15,2013-07-25 21:05:00,
2013-07-25 17:10:00,58.7,57.3,30.07,NNE,28,8.0,9.0,95,0.07,,,0.40,54,Wunderground v.1.15,2013-07-25 21:10:00,
2013-07-25 17:16:00,58.8,57.4,30.07,NE,50,8.0,11.0,95,0.13,,,0.41,47,Wunderground v.1.15,2013-07-25 21:16:00,
2013-07-25 17:22:00,58.9,57.5,30.07,NNE,19,7.0,13.0,95,0.07,,,0.41,58,Wunderground v.1.15,2013-07-25 21:22:00,
2013-07-25 17:27:00,58.8,57.4,30.07,NNE,19,8.0,13.0,95,0.05,,,0.42,63,Wunderground v.1.15,2013-07-25 21:27:00,
2013-07-25 17:32:00,58.8,57.4,30.07,NNW,347,9.0,9.0,95,0.05,,,0.42,63,Wunderground v.1.15,2013-07-25 21:32:00,
2013-07-25 17:38:00,58.8,57.4,30.07,NNE,13,7.0,9.0,95,0.05,,,0.42,62,Wunderground v.1.15,2013-07-25 21:38:00,
2013-07-25 17:43:00,58.8,57.4,30.08,NE,43,7.0,8.0,95,0.00,,,0.42,65,Wunderground v.1.15,2013-07-25 21:43:00,
2013-07-25 17:48:00,58.8,57.4,30.08,NE,40,7.0,9.0,95,0.00,,,0.42,65,Wunderground v.1.15,2013-07-25 21:48:00,
2013-07-25 17:54:00,58.8,57.4,30.08,NE,40,6.0,15.0,95,0.00,,,0.42,46,Wunderground v.1.15,2013-07-25 21:54:00,
2013-07-25 18:00:00,58.8,57.4,30.08,NE,40,7.0,8.0,95,0.00,,,0.42,42,Wunderground v.1.15,2013-07-25 22:00:00,
2013-07-25 18:07:00,58.9,57.5,30.08,NNE,17,6.0,13.0,95,0.00,,,0.42,44,Wunderground v.1.15,2013-07-25 22:07:00,
2013-07-25 18:17:00,58.8,57.4,30.08,NE,42,7.0,14.0,95,0.00,,,0.42,40,Wunderground v.1.15,2013-07-25 22:17:00,
2013-07-25 18:23:00,58.8,57.4,30.09,NNE,32,7.0,12.0,95,0.00,,,0.42,21,Wunderground v.1.15,2013-07-25 22:23:00,
2013-07-25 18:28:00,58.8,57.4,30.09,NE,40,7.0,12.0,95,0.00,,,0.42,19,Wunderground v.1.15,2013-07-25 22:28:00,
2013-07-25 18:33:00,58.8,57.4,30.09,NNE,13,7.0,7.0,95,0.00,,,0.42,16,Wunderground v.1.15,2013-07-25 22:33:00,
2013-07-25 18:39:00,58.7,57.3,30.08,NNE,20,6.0,12.0,95,0.00,,,0.42,21,Wunderground v.1.15,2013-07-25 22:39:00,
2013-07-25 18:44:00,58.6,57.2,30.09,NNE,23,8.0,12.0,95,0.00,,,0.43,33,Wunderground v.1.15,2013-07-25 22:44:00,
2013-07-25 18:50:00,58.6,57.2,30.09,NNE,17,8.0,8.0,95,0.00,,,0.43,37,Wunderground v.1.15,2013-07-25 22:50:00,
2013-07-25 18:56:00,58.6,57.2,30.09,NE,51,8.0,13.0,95,0.00,,,0.43,26,Wunderground v.1.15,2013-07-25 22:56:00,
2013-07-25 19:02:00,58.6,57.2,30.09,ENE,62,8.0,10.0,95,0.00,,,0.43,30,Wunderground v.1.15,2013-07-25 23:02:00,
2013-07-25 19:07:00,58.6,57.2,30.09,NNE,30,8.0,12.0,95,0.00,,,0.43,28,Wunderground v.1.15,2013-07-25 23:07:00,
2013-07-25 19:13:00,58.7,57.3,30.09,NNE,13,7.0,9.0,95,0.00,,,0.43,19,Wunderground v.1.15,2013-07-25 23:13:00,
2013-07-25 19:18:00,58.7,57.3,30.09,NNE,24,6.0,9.0,95,0.00,,,0.43,14,Wunderground v.1.15,2013-07-25 23:18:00,
2013-07-25 19:24:00,58.8,57.4,30.09,NE,34,6.0,7.0,95,0.00,,,0.43,14,Wunderground v.1.15,2013-07-25 23:24:00,
2013-07-25 19:30:00,58.9,57.5,30.09,NNE,32,5.0,5.0,95,0.00,,,0.43,11,Wunderground v.1.15,2013-07-25 23:30:00,
2013-07-25 19:35:00,58.8,57.4,30.09,NNW,340,4.0,6.0,95,0.00,,,0.43,9,Wunderground v.1.15,2013-07-25 23:35:00,
2013-07-25 19:36:00,58.8,57.4,30.09,North,10,3.0,6.0,95,0.00,,,0.43,7,Wunderground v.1.15,2013-07-25 23:36:00,
2013-07-25 19:42:00,58.7,57.3,30.09,NE,51,4.0,6.0,95,0.00,,,0.43,7,Wunderground v.1.15,2013-07-25 23:42:00,
2013-07-25 19:47:00,58.7,57.3,30.09,North,9,4.0,6.0,95,0.00,,,0.43,7,Wunderground v.1.15,2013-07-25 23:47:00,
2013-07-25 19:52:00,58.7,57.3,30.09,North,360,4.0,4.0,95,0.00,,,0.43,5,Wunderground v.1.15,2013-07-25 23:52:00,
2013-07-25 19:58:00,58.7,57.3,30.09,NW,323,3.0,6.0,95,0.00,,,0.43,5,Wunderground v.1.15,2013-07-25 23:58:00,
2013-07-25 20:04:00,58.7,57.3,30.09,NNW,332,3.0,8.0,95,0.00,,,0.43,0,Wunderground v.1.15,2013-07-26 00:04:00,
2013-07-25 20:10:00,58.7,57.3,30.08,NNE,18,4.0,4.0,95,0.00,,,0.43,0,Wunderground v.1.15,2013-07-26 00:10:00,
2013-07-25 20:15:00,58.6,57.2,30.08,North,355,5.0,6.0,95,0.00,,,0.43,0,Wunderground v.1.15,2013-07-26 00:15:00,
2013-07-25 20:20:00,58.6,57.2,30.08,NNE,20,4.0,4.0,95,0.00,,,0.43,0,Wunderground v.1.15,2013-07-26 00:20:00,
2013-07-25 20:25:00,58.6,57.2,30.08,North,355,4.0,7.0,95,0.00,,,0.43,0,Wunderground v.1.15,2013-07-26 00:25:00,
2013-07-25 20:31:00,58.6,57.2,30.08,North,5,5.0,5.0,95,0.00,,,0.43,0,Wunderground v.1.15,2013-07-26 00:31:00,
2013-07-25 20:36:00,58.6,57.2,30.08,North,355,5.0,9.0,95,0.00,,,0.43,0,Wunderground v.1.15,2013-07-26 00:36:00,
2013-07-25 20:41:00,58.6,57.2,30.08,NW,324,5.0,5.0,95,0.00,,,0.43,0,Wunderground v.1.15,2013-07-26 00:41:00,
2013-07-25 20:46:00,58.6,57.2,30.08,NE,49,5.0,10.0,95,0.00,,,0.43,0,Wunderground v.1.15,2013-07-26 00:46:00,
2013-07-25 20:51:00,58.6,57.2,30.08,WNW,303,5.0,6.0,95,0.00,,,0.44,0,Wunderground v.1.15,2013-07-26 00:51:00,
2013-07-25 20:56:00,58.5,57.1,30.08,NNE,12,6.0,7.0,95,0.00,,,0.44,0,Wunderground v.1.15,2013-07-26 00:56:00,
2013-07-25 21:02:00,58.6,57.2,30.08,NNE,22,5.0,9.0,95,0.00,,,0.44,0,Wunderground v.1.15,2013-07-26 01:02:00,
2013-07-25 21:07:00,58.6,57.2,30.08,North,360,5.0,9.0,95,0.04,,,0.45,0,Wunderground v.1.15,2013-07-26 01:07:00,
2013-07-25 21:13:00,58.6,57.5,30.08,NNE,19,6.0,8.0,96,0.04,,,0.45,0,Wunderground v.1.15,2013-07-26 01:13:00,
2013-07-25 21:18:00,58.5,57.4,30.08,North,5,6.0,9.0,96,0.04,,,0.45,0,Wunderground v.1.15,2013-07-26 01:18:00,
2013-07-25 21:23:00,58.6,57.5,30.08,NNE,22,5.0,6.0,96,0.00,,,0.45,0,Wunderground v.1.15,2013-07-26 01:23:00,
2013-07-25 21:29:00,58.6,57.5,30.08,North,360,5.0,8.0,96,0.00,,,0.45,0,Wunderground v.1.15,2013-07-26 01:29:00,
2013-07-25 21:35:00,58.5,57.4,30.07,NNE,15,5.0,7.0,96,0.00,,,0.45,0,Wunderground v.1.15,2013-07-26 01:35:00,
2013-07-25 21:42:00,58.5,57.4,30.07,North,5,5.0,5.0,96,0.00,,,0.45,0,Wunderground v.1.15,2013-07-26 01:42:00,
2013-07-25 21:47:00,58.6,57.5,30.07,NNE,15,5.0,7.0,96,0.00,,,0.45,0,Wunderground v.1.15,2013-07-26 01:47:00,
2013-07-25 21:52:00,58.5,57.4,30.07,NNE,17,5.0,5.0,96,0.00,,,0.45,0,Wunderground v.1.15,2013-07-26 01:52:00,
2013-07-25 21:57:00,58.6,57.5,30.07,North,360,5.0,6.0,96,0.00,,,0.45,0,Wunderground v.1.15,2013-07-26 01:57:00,
2013-07-25 22:03:00,58.6,57.5,30.07,North,360,5.0,6.0,96,0.00,,,0.45,0,Wunderground v.1.15,2013-07-26 02:03:00,
2013-07-25 22:09:00,58.6,57.5,30.07,NW,306,5.0,7.0,96,0.00,,,0.45,0,Wunderground v.1.15,2013-07-26 02:09:00,
2013-07-25 22:15:00,58.6,57.5,30.07,NE,41,6.0,7.0,96,0.00,,,0.45,0,Wunderground v.1.15,2013-07-26 02:15:00,
2013-07-25 22:20:00,58.7,57.6,30.07,NNW,331,5.0,5.0,96,0.00,,,0.45,0,Wunderground v.1.15,2013-07-26 02:20:00,
2013-07-25 22:27:00,58.7,57.6,30.07,NW,315,5.0,6.0,96,0.00,,,0.45,0,Wunderground v.1.15,2013-07-26 02:27:00,
2013-07-25 22:33:00,58.7,57.6,30.07,NNE,30,4.0,4.0,96,0.00,,,0.45,0,Wunderground v.1.15,2013-07-26 02:33:00,
2013-07-25 22:39:00,58.8,57.7,30.07,NNE,13,4.0,5.0,96,0.00,,,0.45,0,Wunderground v.1.15,2013-07-26 02:39:00,
2013-07-25 22:45:00,58.8,57.7,30.07,NNE,29,4.0,9.0,96,0.00,,,0.45,0,Wunderground v.1.15,2013-07-26 02:45:00,
2013-07-25 22:50:00,58.8,57.7,30.06,North,360,6.0,9.0,96,0.00,,,0.45,0,Wunderground v.1.15,2013-07-26 02:50:00,
2013-07-25 22:56:00,58.9,57.8,30.06,North,360,6.0,9.0,96,0.00,,,0.45,0,Wunderground v.1.15,2013-07-26 02:56:00,
2013-07-25 23:01:00,58.9,57.8,30.06,NE,40,6.0,6.0,96,0.00,,,0.45,0,Wunderground v.1.15,2013-07-26 03:01:00,
2013-07-25 23:07:00,58.9,57.5,30.06,NNE,30,6.0,7.0,95,0.00,,,0.45,0,Wunderground v.1.15,2013-07-26 03:07:00,
2013-07-25 23:13:00,59.0,57.6,30.06,NNE,32,6.0,8.0,95,0.00,,,0.45,0,Wunderground v.1.15,2013-07-26 03:13:00,
2013-07-25 23:19:00,59.0,57.6,30.06,North,5,7.0,9.0,95,0.00,,,0.45,0,Wunderground v.1.15,2013-07-26 03:19:00,
2013-07-25 23:24:00,59.1,58.0,30.05,NNE,14,6.0,7.0,96,0.00,,,0.45,0,Wunderground v.1.15,2013-07-26 03:24:00,
2013-07-25 23:29:00,59.1,58.0,30.06,NNE,20,6.0,11.0,96,0.00,,,0.45,0,Wunderground v.1.15,2013-07-26 03:29:00,
2013-07-25 23:35:00,59.2,58.1,30.05,ENE,62,6.0,8.0,96,0.00,,,0.45,0,Wunderground v.1.15,2013-07-26 03:35:00,
2013-07-25 23:41:00,59.3,58.2,30.05,NNE,24,6.0,6.0,96,0.00,,,0.45,0,Wunderground v.1.15,2013-07-26 03:41:00,
2013-07-25 23:47:00,59.3,58.2,30.05,North,360,6.0,9.0,96,0.00,,,0.45,0,Wunderground v.1.15,2013-07-26 03:47:00,
2013-07-25 23:52:00,59.3,57.9,30.05,NNW,332,6.0,7.0,95,0.00,,,0.45,0,Wunderground v.1.15,2013-07-26 03:52:00,
2013-07-25 23:57:00,59.4,58.0,30.05,North,350,7.0,9.0,95,0.00,,,0.45,0,Wunderground v.1.15,2013-07-26 03:57:00,